#timestamp,LO_Frequency,Hit,StdDev 
1681653615.8,286047007.6,N
1681653635.7,286047005.2,N
1681653655.5,286047005.7,N
1681653675.3,286047003.8,N
1681653695.2,286047004.4,N
1681653715.9,286047003.7,N
1681653735.7,286047003.2,N
1681653755.6,286047005.7,N
1681653775.4,286047005.7,N
1681653795.2,286047003.4,N
1681653815.1,286047002.4,N
1681653816.0,286047002.4,N
1681653835.8,286047001.9,N
1681653855.7,286047003.5,N
1681653875.5,286047003.9,N
1681653895.3,286047011.9,Y
1681653915.2,286046996.8,P
1681653935.0,286046997.9,N
1681653935.9,286046997.9,N
1681653955.8,286046995.6,N
1681653975.6,286046995.4,N
1681653995.4,286046996.7,N
1681654015.3,286046998.8,N
1681654035.1,286047001.2,N
1681654055.8,286046998.6,N
1681654075.7,286046999.1,N
1681654095.5,286046999.6,N
1681654115.3,286046996.5,N
1681654135.2,286046998.5,N
1681654155.0,286047000.7,N
1681654155.9,286047000.7,N
1681654175.8,286046998.1,N
1681654195.6,286046998.1,N
1681654215.4,286047000.5,N
1681654235.3,286047002.5,N
1681654255.1,286047001.0,N
1681654275.8,286046998.5,N
1681654295.7,286046999.6,N
1681654315.5,286046998.0,N
1681654335.4,286046995.3,N
1681654355.2,286046997.2,N
1681654375.0,286046997.4,N
1681654375.9,286046997.4,N
1681654395.8,286046997.1,N
1681654415.6,286046997.9,N
1681654435.5,286046995.4,N
1681654455.3,286046994.9,N
1681654475.1,286046993.7,Y
1681654495.9,286046997.8,P
1681654515.7,286046996.7,P
1681654535.5,286046996.6,P
1681654555.4,286046997.9,Y
1681654575.2,286047000.0,P
1681654595.1,286047000.4,N
1681654596.0,286047000.4,N
1681654615.8,286047000.2,N
1681654635.6,286047000.0,N
1681654655.5,286047000.9,N
1681654675.3,286046998.9,N
1681654695.1,286046998.6,N
1681654715.9,286046998.6,N
1681654735.7,286047000.2,N
1681654755.6,286047001.0,N
1681654775.4,286047000.1,N
1681654795.2,286047002.8,N
1681654815.1,286046999.8,N
1681654816.0,286046999.8,N
1681654835.8,286047002.6,N
1681654855.6,286047001.6,N
1681654875.5,286047002.1,N
1681654895.3,286047002.7,N
1681654915.2,286047002.8,N
1681654935.9,286047000.1,N
1681654955.7,286047000.2,N
1681654975.6,286047000.1,N
1681654995.4,286046999.8,N
1681655015.2,286047000.5,N
1681655035.1,286046999.8,N
1681655036.0,286046999.8,N
1681655055.8,286047000.0,N
1681655075.6,286047000.8,N
1681655095.5,286046998.5,N
1681655115.3,286046999.3,N
1681655135.2,286046999.5,N
1681655155.9,286046997.0,N
1681655175.7,286046999.4,N
1681655195.6,286046998.7,N
1681655215.4,286046999.6,N
1681655235.2,286046996.5,N
1681655255.1,286047001.2,N
1681655256.0,286047001.2,N
1681655275.8,286046998.4,N
1681655295.7,286046998.5,N
1681655315.5,286046998.5,N
1681655335.3,286047000.8,N
1681655355.2,286047000.1,N
1681655375.0,286047001.9,N
1681655375.9,286047001.9,N
1681655395.8,286047004.4,N
1681655415.6,286047006.0,Y
1681655435.4,286047003.2,P
1681655455.3,286047003.3,N
1681655475.1,286047002.1,N
1681655495.8,286047000.0,N
1681655515.7,286047000.7,N
1681655535.5,286047000.4,N
1681655555.3,286047000.8,N
1681655575.2,286047001.2,N
1681655595.0,286047000.8,N
1681655595.9,286047000.8,N
1681655615.8,286046997.0,N
1681655635.6,286046997.2,N
1681655655.4,286046997.4,N
1681655675.3,286046995.1,N
1681655695.1,286046997.3,N
1681655715.9,286046997.1,N
1681655735.7,286046997.8,N
1681655755.5,286046995.0,N
1681655775.4,286046999.2,N
1681655795.2,286046998.8,N
1681655815.0,286046999.5,N
1681655815.9,286046999.5,N
1681655835.8,286046998.6,N
1681655855.6,286046996.7,N
1681655875.5,286046998.3,N
1681655895.3,286046999.4,N
1681655915.1,286046998.8,N
1681655935.9,286046998.2,N
1681655955.7,286046998.5,N
1681655975.5,286046998.2,N
1681655995.4,286047002.8,N
1681656015.2,286046999.9,N
1681656035.0,286047000.0,N
1681656035.9,286047000.0,N
1681656055.8,286047000.9,N
1681656075.6,286047000.3,N
1681656095.5,286047000.6,N
1681656115.3,286046999.0,N
1681656135.1,286046996.9,N
1681656155.9,286046995.0,N
1681656175.7,286046995.3,N
1681656195.5,286046997.5,N
1681656215.4,286046998.0,N
1681656235.2,286046996.3,N
1681656255.1,286046993.6,Y
1681656256.0,286046993.6,P
1681656275.8,286046996.8,N
1681656295.6,286046998.0,N
1681656315.5,286046996.6,N
1681656335.3,286046997.7,N
1681656355.1,286046995.3,N
1681656375.9,286046995.2,Y
1681656395.7,286046996.5,P
1681656415.6,286046998.9,P
1681656435.4,286046999.0,N
1681656455.2,286047000.8,N
1681656475.1,286047000.5,N
1681656476.0,286047000.5,N
1681656495.8,286047000.2,N
1681656515.6,286047002.2,N
1681656535.5,286047004.4,N
1681656555.3,286047001.3,N
1681656575.2,286047002.8,N
1681656595.9,286047001.9,N
1681656615.7,286047004.4,N
1681656635.6,286047001.4,N
1681656655.4,286047011.9,Y
1681656675.2,286047000.3,P
1681656695.1,286046999.3,P
1681656696.0,286046999.3,N
1681656715.8,286046997.0,Y
1681656735.7,286046999.1,P
1681656755.5,286046996.6,P
1681656775.3,286046996.6,N
1681656795.2,286046997.8,N
1681656815.0,286046997.7,N
1681656815.9,286046997.7,N
1681656835.8,286046997.5,N
1681656855.6,286046994.9,Y
1681656875.4,286046996.9,P
1681656895.3,286046997.5,P
1681656915.1,286046997.9,P
1681656935.8,286046995.4,Y
1681656955.7,286047000.3,P
1681656975.5,286046999.7,N
1681656995.4,286047001.6,N
1681657015.2,286047002.3,N
1681657035.0,286047004.1,N
1681657035.9,286047004.1,N
1681657055.8,286047006.0,N
1681657075.6,286047007.1,N
1681657095.4,286047006.7,N
1681657115.3,286047007.9,N
1681657135.1,286047008.4,N
1681657155.9,286047009.6,N
1681657175.7,286047007.9,N
1681657195.5,286047007.5,N
